Location: Catstown
(52.4386°N, 7.2633°W)
Time: 14:02:54
(UTC+00:00)

BREEZE-M DEB (TANK) - Pass Details

Date: 18 September 2020
Orbit: 315 x 16294 km, 49.4° (Epoch: 27 October)

Event Time Altitude Azimuth Distance (km) Brightness Sun altitude
Rises 20:37:03 0° 273° (W) 2,378 6.7 -18.5°
Reaches altitude 10° 20:38:36 10° 260° (W) 1,789 5.6 -18.7°
Maximum altitude 20:41:50 29° 196° (SSW) 1,544 4.4 -19.1°
Enters shadow 20:45:12 21° 156° (SSE) 2,679 5.3 -19.6°
